Regional Weather Roundup
Issued by NWS Charleston, SC

Current Version | Previous Version | Graphics & Text | Print | Product List | Glossary On
Versions: 1 2 3 4 5 6 7 8 9 10 11 12 13 14 15 16 17 18 19 20 21 22 23 24 25 26 27 28 29 30 31 32 33 34 35 36 37 38 39 40 41 42 43 44 45 46 47 48 49 50
000
ASUS42 KCHS 281710
RWRCHS

REGIONAL WEATHER ROUNDUP
NATIONAL WEATHER SERVICE CHARLESTON SC
1200 PM EST SUN DEC 28 2014

NOTE: "FAIR" INDICATES FEW OR NO CLOUDS BELOW 12,000 FEET WITH NO
SIGNIFICANT WEATHER AND/OR OBSTRUCTIONS TO VISIBILITY.

NOT ALL STATIONS ARE QUALITY CONTROLLED BY THE NATIONAL
WEATHER SERVICE. USE DATA WITH CAUTION...ESPECIALLY
DEWPOINT OBSERVATIONS.

SCZ027-030-031-034>040-042>050-281800-
...SOUTHEAST SOUTH CAROLINA...

CITY           SKY/WX    TMP DP  RH WIND       PRES   REMARKS
N CHARLESTON   MOSUNNY   74  64  71 SW13      30.10F
WATERFRONT PRK   N/A     72 N/A N/A SW10        N/A
MOUNT PLEASANT FAIR      73  64  73 SW13G20   30.11F
PINOPOLIS      NOT AVBL
MONCKS CORNER  PTSUNNY   72  63  73 SW14G21   30.10F
SUMMERVILLE    FAIR      72  64  78 S7        30.10F
BEAUFORT MCAS  CLOUDY    66  60  81 SE5       30.11F
BEAUFORT ARPT  PTSUNNY   70  64  83 S3        30.10F
HILTON HEAD IS CLOUDY    66  61  82 CALM      30.13F
WALTERBORO     NOT AVBL
ALLENDALE      CLOUDY    68  61  77 VRB3      30.09F

...SOUTHERN MIDLANDS AND PEE DEE...

CITY           SKY/WX    TMP DP  RH WIND       PRES   REMARKS
GEORGETOWN     NOT AVBL
KINGSTREE      NOT AVBL
ORANGEBURG     CLOUDY    67  59  75 S9        30.08F
BARNWELL       CLOUDY    66  61  82 S7        30.08F
AIKEN          CLOUDY    63  63 100 SW3       30.11F
MANNING        FAIR      70  45  40 SW6       30.09F
COLUMBIA       CLOUDY    63  63 100 SW7       30.07F
SUMTER         CLOUDY    71  60  68 SW13      30.06F
FLORENCE       CLOUDY    74  59  59 SW16G24   30.05F
MYRTLE BEACH   MOSUNNY   72  57  60 S13       30.10F
N MYRTLE BEACH MOSUNNY   65  54  67 S7        30.08F

$$

GAZ063-065-086>088-099>101-113>116-118-119-134>141-150-281800-
...SOUTHEAST GEORGIA...

CITY           SKY/WX    TMP DP  RH WIND       PRES   REMARKS
SAVANNAH ARPT  PTSUNNY   71  62  73 S5        30.11F
HUNTER AAF     MOSUNNY   76  67  73 SW3       30.09F
FORT STEWART   MOSUNNY   73  64  73 SW7       30.09F
STATESBORO     PTSUNNY   70  67  93 SW10      30.09F
SYLVANIA       MOSUNNY   69  64  84 SW8       30.10F
CLAXTON        FAIR      72  64  78 W5        30.10F

...CSRA...CENTRAL AND FAR SOUTHEAST GEORGIA...

CITY           SKY/WX    TMP DP  RH WIND       PRES   REMARKS
THOMSON        CLOUDY    60  60 100 CALM      30.13F
AUGUSTA-BUSH   CLOUDY    62  58  86 S6        30.09F
AUGUSTA-DANIEL CLOUDY    62  58  86 SW3       30.10F
SWAINSBORO     FAIR      73  66  78 SW10      30.09F
VIDALIA        MOSUNNY   72  64  78 SW6       30.10F
EASTMAN        FAIR      73  66  78 SW9       30.12F
HAZLEHURST     FAIR      75  65  72 SW9G17    30.09F
ALMA           SUNNY     75  63  66 S8        30.10F
WAYCROSS       SUNNY     75  68  78 SW9G16    30.11F
JESUP          FAIR      75  68  78 SW5       30.11F
BAXLEY         FAIR      73  64  73 SW8       30.09F
BRUNSWICK      SUNNY     77  64  65 SW14      30.12F
SAINT SIMONS   SUNNY     74  65  73 SW6       30.11F

$$

SCZ027-028-034-036>038-045-046-048>050-GAZ119-141-281800-
...LAKE AND SUPPLEMENTAL COASTAL OBSERVATIONS...

STATION/POSITION TIME  TEMP    WIND        PRES    WAVE   SWELL
                       AIR SEA DIR/SP/G            HT/PER HT/PER/DIR
                 (UTC) (F)     (DEG/KT/KT) (MB)    (FT/S) (FT/S/D)
UPR LAKE MARION  NOT AVBL
WINYAH BAY       1600   69     210/  7     1019.0F
LAKE MURRAY      1600   57     230/  2/  5 1018.6F
ACE BASIN NERRS  1600   66     240/  2     1021.0S
FORT PULASKI     1700   70 56  190/  4/  5 1019.9F
SAPELO ISLAND    1600   73     180/  8     1020.0F

$$

ANZ835-935-AMZ111-154-330-350-352-354-370-450-454-472-281800-
...C-MAN AND BUOY OBSERVATIONS...

STATION/POSITION TIME  TEMP    WIND        PRES    WAVE   SWELL
                       AIR SEA DIR/SP/G            HT/PER HT/PER/DIR
                 (UTC) (F)     (DEG/KT/KT) (MB)    (FT/S) (FT/S/D)
BUOY 41004       1700   73 74  210/ 12/ 14 1018.9F   2/15   2/15
BUOY 41008       1700   62 59  190/  8/ 10 1019.6F   4/15   3/ 90/15
FOLLY BEACH CMAN 1600   60     160/  3/  3 1020.7F
CAPERS NEARSHORE 1600   62     160/  4/  6   N/A
FRIPP NEARSHORE  NOT AVBL


STATION/POSITION TIME  TEMP    WIND        PRES    WAVE   SWELL
                       AIR SEA DIR/SP/G            HT/PER HT/PER/DIR
                 (UTC) (F)     (DEG/KT/KT) (MB)    (FT/S) (FT/S/D)
5E ST. MARYS GA  1700      61                N/A     3/15   2/ 90/15
FRYING PAN BUOY  1700   67 68  250/  6/  8 1019.7F   3/15   3/110/15
BUOY 41025       1700   71                 1017.4F   4/14
CAPE LOOKOUT NC  1600   64     250/ 10/ 14 1019.1F
BUOY 41002       1648   74 75  210/ 17/ 21 1021.0F   5/14   5/ 60/14
BUOY 41010       1700   77 77  220/ 10/ 12 1021.0F   5/15   5/ 80/15
ST AUGUSTINE FL  1700   65     120/  4/  4 1021.0F


$$


USA.gov is the U.S. government's official web portal to all federal, state and local government web resources and services.